TimeAKDT,TemperatureF,Dew PointF,Humidity,Sea Level PressureIn,VisibilityMPH,Wind Direction,Wind SpeedMPH,Gust SpeedMPH,PrecipitationIn,Events,Conditions,WindDirDegrees,DateUTC
12:54 AM,18.0,14.0,84,30.02,10.0,Calm,Calm,-,N/A,,Clear,0,2012-10-28 08:54:00
1:54 AM,17.1,12.9,84,30.02,10.0,North,6.9,-,N/A,,Clear,360,2012-10-28 09:54:00
2:54 AM,15.1,10.9,84,30.02,10.0,North,5.8,-,N/A,,Clear,360,2012-10-28 10:54:00
3:54 AM,12.9,10.0,88,30.02,10.0,North,3.5,-,N/A,,Clear,350,2012-10-28 11:54:00
4:54 AM,12.9,10.0,88,30.03,10.0,Calm,Calm,-,N/A,,Clear,0,2012-10-28 12:54:00
5:54 AM,10.9,8.1,88,30.02,10.0,NNW,3.5,-,N/A,,Clear,330,2012-10-28 13:54:00
6:54 AM,10.9,8.1,88,30.03,10.0,North,4.6,-,N/A,,Clear,350,2012-10-28 14:54:00
7:54 AM,10.9,8.1,88,30.03,10.0,North,3.5,-,N/A,,Clear,360,2012-10-28 15:54:00
8:54 AM,7.0,5.0,92,30.03,10.0,North,3.5,-,N/A,,Clear,350,2012-10-28 16:54:00
9:54 AM,7.0,5.0,92,30.04,10.0,North,3.5,-,N/A,,Clear,350,2012-10-28 17:54:00
10:54 AM,10.9,8.1,88,30.04,10.0,NNE,3.5,-,N/A,,Partly Cloudy,20,2012-10-28 18:54:00
11:54 AM,18.0,14.0,84,30.04,10.0,Calm,Calm,-,N/A,,Clear,0,2012-10-28 19:54:00
12:54 PM,21.9,15.1,75,30.04,10.0,North,3.5,-,N/A,,Partly Cloudy,350,2012-10-28 20:54:00
1:54 PM,25.0,16.0,69,30.04,10.0,North,6.9,-,N/A,,Clear,350,2012-10-28 21:54:00
2:54 PM,26.1,17.1,69,30.04,10.0,NNW,8.1,-,N/A,,Clear,340,2012-10-28 22:54:00
3:54 PM,28.9,19.0,67,30.03,10.0,NNW,4.6,-,N/A,,Clear,330,2012-10-28 23:54:00
4:54 PM,30.0,19.9,66,30.02,10.0,Calm,Calm,-,N/A,,Clear,0,2012-10-29 00:54:00
5:54 PM,30.9,19.9,64,30.02,10.0,Calm,Calm,-,N/A,,Clear,0,2012-10-29 01:54:00
6:54 PM,28.0,19.0,69,30.02,10.0,Calm,Calm,-,N/A,,Clear,0,2012-10-29 02:54:00
7:54 PM,25.0,19.0,78,30.03,10.0,WSW,3.5,-,N/A,,Clear,250,2012-10-29 03:54:00
8:54 PM,19.9,18.0,92,30.04,10.0,Calm,Calm,-,N/A,,Clear,0,2012-10-29 04:54:00
9:54 PM,18.0,16.0,92,30.04,10.0,South,4.6,-,N/A,,Clear,180,2012-10-29 05:54:00
10:54 PM,16.0,14.0,92,30.04,10.0,South,3.5,-,N/A,,Clear,190,2012-10-29 06:54:00
11:54 PM,15.1,12.0,88,30.05,10.0,Calm,Calm,-,N/A,,Clear,0,2012-10-29 07:54:00